TimeEDT,TemperatureF,Dew PointF,Humidity,Sea Level PressureIn,VisibilityMPH,Wind Direction,Wind SpeedMPH,Gust SpeedMPH,PrecipitationIn,Events,Conditions,WindDirDegrees,DateUTC
12:54 AM,78.1,71.1,79,30.01,9.0,SW,8.1,-,N/A,,Clear,220,2013-09-11 04:54:00
1:54 AM,80.1,73.0,79,30.01,8.0,SW,10.4,-,N/A,,Clear,220,2013-09-11 05:54:00
2:54 AM,80.1,73.0,79,30.00,8.0,SW,10.4,-,N/A,,Partly Cloudy,220,2013-09-11 06:54:00
3:54 AM,79.0,72.0,79,30.00,8.0,SW,9.2,-,N/A,,Partly Cloudy,220,2013-09-11 07:54:00
4:54 AM,80.1,72.0,76,30.01,8.0,SW,10.4,-,N/A,,Scattered Clouds,220,2013-09-11 08:54:00
5:54 AM,80.1,71.1,74,30.02,8.0,SW,12.7,-,N/A,,Partly Cloudy,230,2013-09-11 09:54:00
6:54 AM,79.0,71.1,77,30.03,7.0,SSW,12.7,-,N/A,,Scattered Clouds,210,2013-09-11 10:54:00
7:54 AM,79.0,71.1,77,30.03,7.0,SW,9.2,-,N/A,,Partly Cloudy,220,2013-09-11 11:54:00
8:54 AM,81.0,71.1,72,30.03,8.0,SW,15.0,24.2,N/A,,Scattered Clouds,230,2013-09-11 12:54:00
9:54 AM,82.9,71.1,67,30.03,8.0,SW,18.4,27.6,N/A,,Scattered Clouds,220,2013-09-11 13:54:00
10:54 AM,82.9,70.0,65,30.02,8.0,SW,20.7,31.1,N/A,,Scattered Clouds,230,2013-09-11 14:54:00
11:54 AM,84.0,70.0,63,30.03,9.0,WSW,18.4,25.3,N/A,,Scattered Clouds,240,2013-09-11 15:54:00
12:54 PM,82.9,70.0,65,30.02,8.0,WSW,17.3,26.5,N/A,,Mostly Cloudy,250,2013-09-11 16:54:00
1:54 PM,84.9,71.1,63,30.00,8.0,WSW,16.1,26.5,N/A,,Mostly Cloudy,250,2013-09-11 17:54:00
2:54 PM,86.0,69.1,57,29.97,9.0,WSW,17.3,27.6,N/A,,Scattered Clouds,240,2013-09-11 18:54:00
3:54 PM,84.9,70.0,61,29.95,9.0,SW,20.7,28.8,N/A,,Scattered Clouds,230,2013-09-11 19:54:00
4:54 PM,84.0,70.0,63,29.92,7.0,WSW,16.1,24.2,N/A,,Scattered Clouds,240,2013-09-11 20:54:00
5:54 PM,84.9,70.0,61,29.94,8.0,WSW,13.8,21.9,N/A,,Mostly Cloudy,250,2013-09-11 21:54:00
6:54 PM,82.0,68.0,62,29.95,9.0,West,10.4,-,N/A,,Scattered Clouds,260,2013-09-11 22:54:00
7:54 PM,77.0,69.1,76,29.92,8.0,South,10.4,-,N/A,,Scattered Clouds,170,2013-09-11 23:54:00
8:54 PM,77.0,68.0,74,29.94,8.0,SSW,8.1,-,N/A,,Scattered Clouds,200,2013-09-12 00:54:00
9:54 PM,77.0,68.0,74,29.95,9.0,SSW,9.2,-,N/A,,Mostly Cloudy,200,2013-09-12 01:54:00
10:54 PM,75.9,69.1,79,29.91,9.0,SSW,8.1,-,N/A,,Mostly Cloudy,200,2013-09-12 02:54:00
11:14 PM,75.2,69.8,83,29.93,10.0,SSW,8.1,-,N/A,Thunderstorm,Thunderstorm,210,2013-09-12 03:14:00
11:35 PM,71.6,64.4,78,29.97,2.5,WNW,16.1,28.8,0.00,Rain-Thunderstorm,Light Thunderstorms and Rain,290,2013-09-12 03:35:00
11:46 PM,69.8,64.4,83,29.96,4.0,West,9.2,26.5,0.09,Rain-Thunderstorm,Light Thunderstorms and Rain,270,2013-09-12 03:46:00
11:54 PM,69.1,66.0,90,29.96,6.0,West,9.2,-,0.11,Rain-Thunderstorm,Light Thunderstorms and Rain,260,2013-09-12 03:54:00